EW8696 Weather Reports


Display with metric or nautical units.
time (UTC)temp
F
wind
direction
speed
MPH
gust
MPH
rain 1hr
in
rain 24hr
in
rain mn
in
humidity
%
barometer
mb
20260505180012 54 190 0.0 10.0 0.03 0.83 0.75 86 1018.8
20260505174523 54 190 0.0 8.0 0.03 0.82 0.74 85 1017.6
20260505173011 54 190 0.0 8.0 0.04 0.82 0.74 83 1017.1
20260505171513 55 190 0.0 13.0 0.05 0.81 0.73 82 1017.3
20260505170019 55 190 7.0 18.0 0.05 0.89 0.72 87 1017.3
20260505164507 55 190 0.0 4.0 0.06 0.88 0.71 90 1016.8
20260505163009 55 190 0.0 4.0 0.06 0.87 0.70 91 1016.4
20260505161506 56 190 0.0 2.0 0.06 0.85 0.68 91 1016.4
20260505153004 55 190 0.0 1.0 0.08 0.81 0.64 91 1016.4
20260505151504 55 190 0.0 0.0 0.08 0.79 0.62 91 1016.1
20260505124551 67 190 11.0 18.0 0.17 0.52 0.35 77 1012.6
20260505123106 67 190 6.0 16.0 0.14 0.47 0.30 85 1013.1
20260505121547 65 190 4.0 14.0 0.12 0.43 0.26 88 1013.4
20260505120047 63 190 1.0 10.0 0.09 0.39 0.22 89 1013.7
20260505114604 62 190 5.0 13.0 0.06 0.35 0.18 90 1014.1
20260505113043 60 190 1.0 9.0 0.05 0.33 0.16 90 1014.9
20260505111556 58 190 0.0 11.0 0.04 0.31 0.14 91 1015.0
20260505101536 67 190 1.0 11.0 0.02 0.27 0.10 78 1014.0
20260505100035 67 190 1.0 15.0 0.02 0.27 0.10 78 1015.0
20260505094528 67 190 1.0 18.0 0.02 0.26 0.09 80 1015.6
20260505093029 66 190 3.0 18.0 0.02 0.25 0.08 81 1016.0
20260505091531 66 190 7.0 18.0 0.02 0.25 0.08 83 1016.3
20260505090025 66 190 9.0 19.0 0.02 0.25 0.08 84 1016.7
20260505084519 65 190 7.0 17.0 0.02 0.24 0.07 88 1016.7
20260505083017 63 190 0.0 12.0 0.02 0.23 0.06 88 1016.9
20260505081513 63 190 2.0 14.0 0.02 0.23 0.06 88 1017.0
20260505080025 62 190 0.0 8.0 0.02 0.23 0.06 90 1016.9
20260505074505 60 190 0.0 6.0 0.01 0.22 0.05 90 1017.0
20260505073004 60 190 3.0 17.0 0.00 0.21 0.04 90 1017.1
20260505071502 60 190 6.0 18.0 0.00 0.21 0.04 90 1017.5
20260505070000 60 190 0.0 10.0 0.00 0.21 0.04 91 1017.3
20260505064604 59 190 2.0 14.0 0.00 0.21 0.04 90 1018.4
20260505063058 59 190 4.0 12.0 0.01 0.21 0.04 90 1019.1
20260505061557 59 190 1.0 10.0 0.01 0.21 0.04 90 1017.9
20260505054603 58 190 0.0 2.0 0.01 0.21 0.04 89 1017.8
20260505053109 58 190 3.0 12.0 0.00 0.20 0.03 89 1017.9
20260505051554 58 190 5.0 10.0 0.00 0.20 0.03 90 1018.8
20260505041609 58 190 9.0 14.0 0.00 0.20 0.03 88 1018.8
20260505040047 58 190 5.0 10.0 0.01 0.20 0.03 88 1018.5
20260505034547 58 190 5.0 11.0 0.01 0.20 0.03 88 1018.1
20260505033043 58 190 4.0 11.0 0.01 0.20 0.03 88 1017.9
20260505031543 58 190 5.0 11.0 0.01 0.20 0.03 87 1017.9
20260505030040 58 190 4.0 10.0 0.00 0.19 0.02 87 1017.9
20260505024544 58 190 3.0 11.0 0.00 0.19 0.02 87 1017.9
20260505023044 58 190 0.0 3.0 0.00 0.19 0.02 87 1018.1
20260505021543 59 190 0.0 0.0 0.00 0.19 0.02 86 1018.1
20260505020035 59 190 5.0 12.0 0.00 0.19 0.02 86 1018.2
20260505014541 60 190 6.0 12.0 0.00 0.19 0.02 87 1018.2
20260505013032 60 190 6.0 11.0 0.00 0.19 0.02 88 1018.2
20260505011534 60 190 3.0 10.0 0.00 0.19 0.02 89 1018.4
20260505010029 60 190 0.0 6.0 0.00 0.19 0.02 89 1018.7
20260505004530 60 190 4.0 10.0 0.00 0.19 0.02 89 1018.7
20260505003026 60 190 1.0 11.0 0.01 0.19 0.02 89 1019.0
20260505001522 60 190 6.0 12.0 0.01 0.19 0.02 90 1019.2
20260505000029 59 190 5.0 13.0 0.01 0.19 0.02 90 1019.5
20260504234520 59 190 0.0 8.0 0.01 0.19 0.02 90 1019.3
20260504233020 59 190 0.0 4.0 0.01 0.18 0.01 90 1019.6
20260504231523 59 190 0.0 8.0 0.01 0.18 0.01 90 1019.9
20260504230015 58 190 0.0 5.0 0.01 0.18 0.01 90 1020.3
20260504224508 58 190 0.0 0.0 0.01 0.18 0.01 89 1020.2
20260504223006 58 190 0.0 0.0 0.00 0.17 0.00 90 1020.3
20260504221505 58 190 0.0 0.0 0.00 0.17 0.00 90 1020.5
20260504220007 58 190 0.0 0.0 0.00 0.17 0.17 90 1020.8
20260504214601 58 190 0.0 0.0 0.01 0.17 0.17 90 1020.9
20260504213102 59 190 0.0 1.0 0.01 0.17 0.17 90 1021.2
20260504211559 59 190 0.0 0.0 0.02 0.17 0.17 90 1021.5
20260504210110 59 190 0.0 2.0 0.02 0.17 0.17 90 1021.9
20260504204604 59 190 0.0 3.0 0.01 0.16 0.16 90 1021.7
20260504203058 59 190 0.0 0.0 0.01 0.16 0.16 90 1022.1
20260504201601 59 190 0.0 0.0 0.01 0.15 0.15 90 1022.4
20260504200101 59 190 0.0 4.0 0.01 0.15 0.15 90 1022.7
20260504194609 59 190 0.0 0.0 0.02 0.15 0.15 90 1023.0
20260504193056 59 190 0.0 0.0 0.02 0.15 0.15 90 1023.0
20260504191556 59 190 0.0 0.0 0.02 0.14 0.14 90 1022.8
20260504190125 59 190 0.0 2.0 0.02 0.14 0.14 90 1022.9
20260504184559 59 190 0.0 4.0 0.02 0.13 0.13 90 1023.2
20260504183056 59 190 0.0 4.0 0.02 0.13 0.13 90 1023.0
20260504181558 59 190 0.0 6.0 0.02 0.12 0.12 90 1023.0